TIME,DELAY(SENSOR),PRES,OXYGEN,RAWTEMP,T(OPTODE),TCPHASE,FLUOR,BETA(BETA700),BETA(BETA412),BETA(BETA440),CDOM,C(CSC),ED(ED412.20),ED(ED444.00),ED(ED489.60),ED(ED554.30),LU(LU412.10),LU(LU443.90),LU(LU489.70),LU(LU554.70),COMP,TILTX,TILTY,CHECK
1362714101,5810,881.8699951171875000,32.9136581420898440,560.5230712890625000,4.4696831703186035,56.6231384277343750,54,101,101,77,81,15527,0,0,0,0,2147119625,2147769152,2147574720,2147570249,3357,3,13,18556
1362717697,5810,951.7299804687500000,40.4836883544921900,569.2797241210938000,4.1979432106018070,55.5397186279296900,54,100,100,78,81,15526,0,0,0,0,2147120877,2147772196,2147574326,2147567195,2684,2,13,26325
1362721297,5808,967.4299926757812000,41.9967498779296900,570.9340820312500000,4.1465277671813965,55.3284988403320300,55,99,100,77,82,15511,0,0,0,0,2147122560,2147772992,2147573814,2147567158,3544,2,13,23512
1362724897,5810,1004.1500244140625000,42.8658599853515600,573.0728759765625000,4.0800290107727050,55.2251586914062500,54,98,101,77,82,15512,0,0,0,0,2147125540,2147769206,2147575414,2147572306,3562,2,13,30654
1362728497,5812,1006.1300048828125000,42.8192787170410160,573.1685791015625000,4.0770530700683590,55.2326507568359400,55,97,100,77,82,15513,0,0,0,0,2147126646,2147771602,2147571547,2147568667,31,2,13,46923
1362732097,5811,1001.8499755859375000,43.4040908813476560,573.9569702148438000,4.0525279045104980,55.1558189392089840,55,99,100,77,83,15509,0,0,0,0,2147120219,2147769042,2147573668,2147568301,3534,2,13,5645
1362735697,5813,1013.7000122070312000,42.9165916442871100,573.4680175781250000,4.0677409172058105,55.2213706970214840,56,98,101,78,82,15510,0,0,0,0,2147117778,2147774208,2147574025,2147568667,3499,2,13,33966
1362739297,5810,1019.4500122070312000,42.5357704162597660,572.6538696289062000,4.0930600166320800,55.2731513977050800,54,97,98,77,81,15510,0,0,0,0,2147121398,2147768905,2147573348,2147568676,160,2,13,55052
1362742897,5809,1017.0300292968750000,41.4995307922363300,572.3469238281250000,4.1026058197021480,55.4155311584472660,54,99,100,78,81,15509,0,0,0,0,2147125632,2147767780,2147576475,2147568393,368,2,13,6470
1362746497,5810,1017.9199829101562000,41.6188697814941400,572.3928222656250000,4.1011791229248050,55.4002799987793000,55,99,100,78,82,15512,0,0,0,0,2147124571,2147773385,2147572333,2147570139,290,2,13,53544
1362750097,5809,1016.5000000000000000,42.2302017211914060,572.6829833984375000,4.0921540260314940,55.3116111755371100,55,100,100,78,82,15507,0,0,0,0,2147119917,2147769005,2147572562,2147566189,423,2,13,55571
1362753697,5812,1017.4400024414062000,42.4352989196777340,573.1118774414062000,4.0788149833679200,55.2926101684570300,55,97,99,78,82,15510,0,0,0,0,2147124196,2147765787,2147570386,2147567524,4,2,13,47136
1362757297,5810,1014.0499877929688000,42.6420288085937500,574.1939697265625000,4.0451560020446780,55.2762908935546900,55,97,100,78,82,15510,0,0,0,0,2147124059,2147770441,2147574171,2147565750,367,2,13,60943
1362760897,5811,1018.8499755859375000,43.2611389160156250,574.2910156250000000,4.0421371459960940,55.1874885559082000,56,98,100,78,82,15508,0,0,0,0,2147124416,2147774016,2147576292,2147570715,37,2,13,14269
1362764497,5809,1020.2700195312500000,42.6622581481933600,574.0156860351562000,4.0507011413574220,55.2696189880371100,54,97,100,79,81,15510,0,0,0,0,2147126226,2147775277,2147573824,2147566345,304,2,13,47530
1362768097,5809,1017.7999877929688000,42.5171012878418000,574.0040283203125000,4.0510668754577640,55.2844886779785160,55,97,99,78,81,15508,0,0,0,0,2147126957,2147773988,2147570578,2147569792,42,2,13,27221
1362771697,5808,1016.6500244140625000,42.9585914611816400,574.6765747070312000,4.0301399230957030,55.2330284118652340,55,98,100,77,82,15510,0,0,0,0,2147123529,2147771876,2147573504,2147566966,414,2,13,26461
1362775297,5810,1017.0999755859375000,44.2273101806640600,575.0324096679688000,4.0190677642822270,55.0580787658691400,53,96,98,78,81,15511,0,0,0,0,2147120557,2147770560,2147570614,2147571218,3526,2,13,9643
1362778897,5810,1010.3400268554688000,43.6715583801269500,575.7451782226562000,3.9968869686126710,55.1375312805175800,54,100,99,78,82,15511,0,0,0,0,2147118976,2147767012,2147570761,2147567789,3522,2,13,18926
1362782497,5809,1016.5399780273438000,43.8166313171386700,575.9840698242188000,3.9894499778747560,55.1260795593261700,54,101,100,78,83,15509,0,0,0,0,2147120905,2147775140,2147573019,2147566674,3376,2,13,22601
1362786097,5812,1022.3699951171875000,44.1778602600097660,575.7434082031250000,3.9969410896301270,55.0733604431152340,55,99,102,77,81,15506,0,0,0,0,2147123099,2147773430,2147579858,2147574208,4,2,13,30064
1362789697,5811,1015.8599853515625000,43.6816711425781250,576.1464843750000000,3.9843919277191160,55.1399383544921900,55,97,100,78,80,15506,0,0,0,0,2147123712,2147771428,2147576850,2147569216,3528,2,13,38186
1362793297,5810,1011.0700073242188000,43.6236610412597660,575.8652954101562000,3.9931468963623047,55.1467399597168000,55,98,101,78,81,15508,0,0,0,0,2147125723,2147767570,2147574454,2147571273,3018,2,13,1859
1362796897,5808,1009.3699951171875000,43.4831314086914060,576.6287841796875000,3.9693789482116700,55.1786499023437500,55,98,100,79,82,15508,0,0,0,0,2147124416,2147772992,2147578240,2147567945,134,2,13,11749
1362800497,5812,1015.6199951171875000,43.9481391906738300,575.6414184570312000,4.0001158714294430,55.1002388000488300,55,99,99,77,81,15507,0,0,0,0,2147123858,2147773522,2147570496,2147568329,3422,2,13,52086
1362804097,5811,1018.6400146484375000,43.7303009033203100,574.7595825195312000,4.0275568962097170,55.1203804016113300,55,98,101,78,82,15509,0,0,0,0,2147122130,2147772224,2147578102,2147567990,3580,2,13,37715
1362807697,5810,1018.7199707031250000,43.7844085693359400,575.4149169921875000,4.0071659088134770,55.1222381591796900,56,99,100,78,82,15506,0,0,0,0,2147125010,2147775689,2147575030,2147568301,3584,2,13,47985
1362811297,5810,1021.7899780273438000,43.6731605529785160,575.0352172851562000,4.0189838409423830,55.1285209655761700,55,99,99,78,81,15503,0,0,0,0,2147120850,2147768694,2147577078,2147569261,51,2,13,49745
1362814897,5808,1032.0100097656250000,43.4577217102050800,574.1964111328125000,4.0450820922851560,55.1524810791015600,55,98,100,78,82,15505,0,0,0,0,2147120301,2147768036,2147573412,2147570166,3576,2,13,989
1362818497,5809,1020.4000244140625000,42.4690704345703100,574.2670288085938000,4.0428829193115230,55.2955207824707000,55,100,100,77,83,15506,0,0,0,0,2147123401,2147769764,2147576219,2147569746,481,2,13,14218
1362822097,5807,1024.6999511718750000,43.1632881164550800,574.1373901367188000,4.0469169616699220,55.1968307495117200,54,97,101,78,81,15505,0,0,0,0,2147125787,2147776374,2147575021,2147568585,109,2,13,56589
1362825697,5812,1027.5600585937500000,43.0487098693847660,574.4368286132812000,4.0376009941101070,55.2133293151855500,55,98,101,78,81,15503,0,0,0,0,2147123446,2147768045,2147571437,2147570432,118,2,13,32209
1362829297,5808,1026.5699462890625000,42.8752403259277340,574.1135864257812000,4.0476551055908200,55.2350082397460940,54,99,101,76,82,15506,0,0,0,0,2147123446,2147769938,2147575049,2147565942,157,2,13,38562
1362832897,5808,1024.3299560546875000,42.8745307922363300,574.4420776367188000,4.0374369621276855,55.2383003234863300,55,100,99,76,81,15503,0,0,0,0,2147123949,2147766473,2147573577,2147566912,890,2,13,32434
1362836497,5811,1024.9100341796875000,42.7584800720214840,573.7816772460938000,4.0579829216003420,55.2482910156250000,55,98,100,78,82,15502,0,0,0,0,2147125440,2147765860,2147573238,2147569197,78,2,13,17876
1362840097,5812,1021.9400024414062000,43.7069396972656250,574.9291992187500000,4.0222802162170410,55.1281700134277340,54,97,99,78,81,15504,0,0,0,0,2147124443,2147768987,2147573248,2147567606,21,2,13,953
1362843697,5811,1020.9299926757812000,43.3459205627441400,574.9797973632812000,4.0207061767578125,55.1822204589843750,55,98,99,78,82,15505,0,0,0,0,2147125458,2147775094,2147574921,2147570779,60,2,13,50227
1362847297,5809,1029.7600097656250000,44.1870384216308600,574.9537963867188000,4.0215148925781250,55.0650215148925800,55,100,100,78,82,15504,0,0,0,0,2147125997,2147769472,2147574601,2147571282,3027,2,13,25384
1362850897,5809,1019.7299804687500000,43.4035911560058600,574.5559082031250000,4.0338950157165530,55.1677207946777340,54,100,99,79,82,15503,0,0,0,0,2147121782,2147769472,2147574107,2147564736,3489,2,13,13623
1362854497,5809,1026.6300048828125000,43.9217414855957000,575.7733154296875000,3.9960119724273680,55.1032295227050800,54,99,101,79,81,15504,0,0,0,0,2147125769,2147764306,2147576128,2147568987,376,2,13,62397
1362858097,5810,1020.8300170898438000,43.5339813232421900,575.9428100585938000,3.9907341003417970,55.1621894836425800,54,98,100,79,82,15504,0,0,0,0,2147123465,2147767021,2147572352,2147565595,170,2,13,60089
1362860756,5812,1033.4100341796875000,44.2250900268554700,575.1090698242188000,4.0166821479797360,55.0606193542480500,54,98,101,77,82,15503,0,0,0,0,2147127862,2147772333,2147575524,2147569435,3059,2,13,51365
